Lapse_Rate
6.2 6.5 6.0 6.3 6.3 6.2 6.1 6.0 5.8 6.2 6.2 6.0 6.1 6.0 7.2 7.3 7.0 6.6 6.2 6.1 6.3 6.3 6.2 6.2 6.3 6.6 6.7 6.5 6.2 5.9 5.8 5.7 5.5 5.1 5.2 5.9 5.7 6.1 6.2 6.1 5.9 5.9 6.0 6.1
5.8 5.9 6.0 5.9 5.9 6.0 5.9 5.5 5.6 5.9 6.1 5.9 6.4 6.2 6.9 7.3 6.8 6.5 6.2 6.2 6.1 6.0 6.1 6.2 6.4 6.4 6.7 6.8 6.4 6.0 5.7 5.6 5.5 5.2 5.0 5.1 5.5 5.7 6.0 6.0 5.9 5.9 6.0 6.1
5.5 5.8 5.7 5.7 5.6 5.2 5.4 5.4 5.5 5.4 5.7 6.3 5.8 6.6 6.9 6.9 6.8 6.0 5.8 5.9 6.1 6.1 6.2 6.2 6.4 6.4 6.3 6.4 6.2 6.1 6.2 6.1 6.0 5.5 5.2 4.9 5.2 5.4 6.0 6.4 6.6 6.3 6.1 6.2
5.7 5.5 5.5 5.4 5.1 5.1 5.1 5.5 5.3 5.4 5.3 5.4 6.2 5.5 6.8 6.4 6.5 5.7 5.5 5.4 5.6 5.7 5.6 5.9 6.0 6.0 6.1 6.2 6.3 6.3 6.3 6.3 6.1 5.9 5.6 4.9 4.6 5.3 5.6 6.2 6.5 6.3 6.0 6.1
5.8 5.2 4.9 5.3 5.0 5.0 5.1 5.1 5.3 5.6 5.3 5.3 6.1 6.0 7.7 7.4 5.8 4.9 4.9 4.7 4.7 4.9 5.4 5.4 5.7 5.9 6.0 6.0 6.3 6.1 5.9 5.9 5.9 6.0 5.6 5.3 4.9 4.4 5.5 5.8 6.2 6.3 6.2 6.1
5.4 5.2 5.0 5.2 5.5 5.1 5.0 4.8 5.5 6.5 5.8 5.6 6.7 6.4 8.0 7.7 5.8 4.4 4.2 4.2 3.7 3.6 3.9 4.9 5.2 5.4 5.7 5.6 5.5 6.1 6.0 5.7 6.1 6.3 6.5 6.2 5.4 5.0 4.6 5.7 5.4 5.9 6.2 6.2
4.8 4.8 4.6 4.7 4.9 4.7 4.7 4.8 5.4 6.2 5.5 5.7 7.0 7.0 8.1 7.2 5.7 4.6 3.9 3.5 3.5 3.8 3.9 4.1 5.0 5.4 5.4 5.7 5.7 5.8 6.2 6.2 6.3 6.1 6.1 6.3 6.3 5.4 4.8 5.7 5.7 5.6 5.9 6.2
4.6 5.3 4.6 3.9 4.5 4.9 5.2 4.7 5.3 5.3 5.9 5.6 7.0 6.5 7.6 6.7 5.1 4.6 4.5 4.3 4.4 4.5 4.0 3.5 3.5 3.9 4.1 4.8 5.1 5.8 5.9 5.9 6.1 5.8 5.8 6.4 6.2 6.1 5.7 4.8 5.6 5.3 5.6 5.9
4.0 4.8 4.9 4.5 5.0 4.9 4.9 4.9 4.9 4.5 5.0 5.2 5.5 6.5 7.3 6.4 5.5 5.6 5.7 5.6 5.6 5.0 4.8 4.1 4.1 4.2 3.8 3.2 3.1 3.7 4.4 4.6 4.7 5.2 4.8 5.8 6.2 6.0 5.8 5.4 5.1 5.1 4.7 5.2
3.2 3.1 4.8 4.4 4.6 4.7 4.5 4.7 4.8 4.9 5.0 5.2 6.3 6.2 6.7 6.9 6.9 6.8 6.3 6.1 5.8 5.9 5.9 5.4 5.3 4.8 4.4 4.0 3.5 3.4 3.3 4.0 5.2 5.2 5.0 4.8 6.1 6.1 5.8 5.8 5.0 4.8 4.4 3.7
3.4 3.0 4.3 4.2 4.2 4.2 4.5 4.5 4.6 4.6 4.6 4.9 4.6 4.1 5.4 5.6 4.6 4.8 4.7 4.3 4.2 3.9 3.5 3.5 3.7 3.7 4.2 4.5 4.7 4.8 5.5 5.9 6.2 6.1 5.7 5.9 5.7 6.1 5.9 5.8 5.2 4.4 4.1 3.9
3.4 3.6 3.1 4.3 4.1 4.1 4.3 4.1 4.2 4.6 4.6 4.6 4.1 2.8 4.9 4.3 4.2 3.9 4.2 4.2 4.0 3.9 3.8 5.1 5.9 6.4 6.9 6.8 6.7 7.0 7.5 7.5 7.3 6.9 7.4 6.8 6.3 6.3 6.3 5.7 5.4 4.1 3.7 3.6
3.0 2.9 2.6 4.2 3.7 3.2 3.2 3.4 3.8 4.2 4.2 3.6 3.9 3.6 4.3 3.9 4.0 4.1 4.1 4.4 4.6 4.5 5.1 6.4 7.1 7.4 7.4 7.4 7.5 7.6 7.6 7.3 7.3 7.1 7.1 7.5 6.6 5.4 6.1 5.4 6.0 5.6 4.4 4.2
2.8 3.2 3.0 3.4 4.3 3.9 3.5 3.7 4.0 4.1 4.0 3.8 3.7 4.0 3.9 4.1 4.2 4.3 4.6 5.0 5.4 6.0 7.2 7.8 7.6 7.7 7.6 7.8 8.0 7.5 7.5 7.4 7.2 7.2 7.3 7.1 7.3 6.1 5.0 5.4 5.0 5.5 4.9 4.9
2.7 2.6 2.5 2.9 3.5 3.3 3.0 3.3 3.6 3.7 3.7 3.9 3.6 3.8 4.3 4.7 4.7 5.0 5.8 6.7 7.2 7.8 7.9 7.7 7.7 7.9 7.7 7.7 7.8 7.7 7.7 7.5 7.3 7.1 7.3 7.2 7.0 7.0 6.6 5.2 5.4 5.4 4.7 4.9
2.4 2.8 2.5 2.6 3.4 2.8 3.0 3.3 3.6 3.7 3.9 4.0 4.4 4.8 5.4 5.2 5.1 5.4 6.9 7.8 7.8 8.2 7.8 7.7 7.7 7.8 7.8 7.8 7.6 7.7 7.9 7.8 7.4 7.3 7.3 7.5 7.2 7.3 6.9 5.3 5.4 4.9 4.8 4.9
3.2 2.9 2.3 2.3 2.8 2.9 3.4 4.1 4.2 4.1 4.4 4.8 4.8 4.8 5.1 5.1 5.6 5.8 8.0 7.7 7.8 8.0 7.8 7.5 7.8 7.5 7.7 8.1 8.1 8.0 7.9 7.9 7.7 7.6 7.4 7.4 7.1 6.9 6.5 5.6 5.4 5.6 5.1 4.6
4.4 3.4 2.9 2.8 3.0 3.2 4.7 4.6 4.3 4.1 4.3 5.1 4.9 5.2 5.2 5.7 6.3 6.9 8.2 8.2 8.0 8.0 7.7 7.9 7.6 7.6 8.0 8.3 8.2 8.1 8.1 7.9 7.5 7.8 7.5 7.6 7.1 7.0 6.1 5.9 5.2 5.8 5.0 4.5
4.2 3.6 3.2 3.4 3.7 3.7 4.2 4.2 4.3 4.1 3.7 4.5 4.7 5.1 5.6 6.4 6.9 7.3 8.3 8.2 8.0 7.9 7.7 7.6 7.8 7.8 8.0 8.2 8.2 8.1 8.3 8.1 7.7 7.8 7.7 7.3 7.5 6.9 6.6 6.0 5.4 5.6 5.1 4.7
3.8 3.7 3.6 3.8 3.8 3.4 4.9 4.6 4.3 4.0 3.8 4.7 5.4 5.9 6.9 7.1 7.1 7.5 7.7 8.0 8.1 7.9 7.8 7.6 7.7 8.0 8.1 8.1 8.1 8.3 8.3 8.1 8.0 7.6 7.7 7.4 7.6 7.2 6.8 6.0 5.7 5.4 5.1 4.9
4.5 4.3 4.1 4.0 4.4 4.3 4.4 4.7 4.7 4.4 4.8 4.8 5.7 6.3 6.6 7.0 7.2 7.4 7.5 7.6 7.9 8.1 8.1 7.9 7.8 8.0 8.1 8.0 7.8 8.2 8.3 8.1 7.8 7.6 7.6 7.3 7.2 7.2 7.0 6.5 5.6 5.6 5.0 5.0
4.4 4.2 4.1 4.1 4.2 4.6 5.2 5.4 6.0 5.5 4.8 6.0 6.1 6.6 6.8 6.9 7.0 7.2 7.3 7.3 7.3 7.5 7.6 7.9 7.8 7.9 8.1 8.0 7.9 8.1 8.2 8.0 7.9 7.8 7.6 7.2 7.2 7.2 7.0 6.7 5.4 4.8 5.6 5.1
4.3 4.9 4.5 4.3 4.7 5.0 4.8 5.1 5.1 5.4 5.2 5.8 6.3 6.5 6.6 6.4 6.5 6.6 6.6 6.8 7.0 7.4 7.7 7.7 7.7 7.8 8.3 7.9 7.8 8.1 8.3 8.1 8.1 8.0 7.6 7.2 7.2 6.9 6.9 6.6 5.4 5.4 5.4 5.3
5.0 4.8 4.6 4.4 5.6 5.0 5.1 4.5 4.3 5.4 6.1 6.4 6.4 6.4 6.1 6.0 6.2 6.1 6.2 6.3 6.4 6.7 7.1 7.2 6.9 7.4 7.9 7.7 7.9 7.7 8.2 8.1 8.2 8.1 7.6 7.3 7.1 6.9 6.5 6.6 6.1 5.3 5.4 5.2
5.5 4.7 5.3 4.7 5.0 4.0 4.6 4.9 5.0 4.9 5.3 5.9 6.0 5.6 5.5 5.9 5.6 5.6 5.5 5.5 5.7 5.8 6.2 6.5 6.5 6.6 7.1 7.5 7.7 7.9 8.1 8.0 8.0 8.0 7.6 7.3 6.9 6.7 6.2 6.1 5.4 5.2 5.2 5.2
5.5 5.2 4.7 4.2 4.2 4.4 5.0 5.1 5.4 5.3 5.8 5.7 5.2 5.0 4.9 5.1 4.9 5.1 5.3 5.3 5.6 5.7 6.0 6.3 6.6 6.7 7.0 7.1 7.6 7.8 7.8 7.9 7.8 7.6 7.3 7.1 6.7 6.2 5.9 5.9 5.3 5.3 5.2 4.9
Wind_Speed
3 3 6 8 7 8 8 11 13 13 13 12 9 16 20 19 12 9 7 16 19 19 18 22 21 24 24 25 23 22 22 10 5 7 7 4 5 4 4 5 11 13 14 16
5 7 5 6 5 5 8 13 14 12 10 13 11 18 22 23 6 20 20 20 19 20 20 20 20 20 20 20 22 23 21 19 17 4 7 8 6 5 5 5 7 15 16 16
5 9 3 4 6 11 11 12 10 13 15 14 10 7 2 15 22 21 20 17 19 19 19 17 17 18 17 17 18 19 20 18 16 18 6 3 2 3 4 7 8 7 12 15
8 5 2 7 10 10 9 9 11 12 11 4 10 6 9 10 17 17 12 11 14 16 15 16 18 18 19 12 9 11 15 15 16 17 13 11 10 10 8 8 8 6 10 11
5 8 6 7 8 10 6 9 13 15 13 11 10 4 6 17 14 12 11 14 13 13 15 18 18 16 14 14 8 10 14 9 10 13 16 10 12 10 6 7 9 11 9 10
12 9 4 2 9 8 9 11 17 17 8 5 9 10 4 4 13 10 11 12 14 11 11 11 11 12 13 13 8 7 12 9 9 9 10 16 15 11 9 7 8 8 7 9
11 1 6 7 9 2 9 11 4 2 2 5 14 6 4 16 15 16 13 14 16 15 10 12 14 14 13 13 14 8 9 10 14 12 9 11 15 15 14 14 10 9 9 9
6 2 4 5 3 6 12 5 4 5 4 8 19 4 6 17 17 13 14 11 9 10 7 9 9 11 14 15 15 14 9 9 14 16 10 8 13 11 9 13 10 9 10 11
6 2 6 8 4 4 8 4 4 5 9 10 6 6 19 15 17 16 19 15 12 12 8 9 8 8 9 13 12 16 12 11 12 17 16 9 13 16 11 11 14 9 12 11
4 7 8 6 3 6 5 3 2 3 5 5 4 7 4 23 21 24 21 16 17 15 15 17 19 17 15 17 12 10 8 11 14 15 14 13 14 15 16 12 13 14 10 14
5 3 2 12 3 8 5 6 7 5 6 4 5 6 7 16 18 23 22 16 13 8 9 11 12 10 13 17 13 9 14 13 10 10 12 12 16 16 17 12 8 12 14 12
5 4 5 8 9 7 4 7 8 1 5 4 3 17 19 13 21 18 18 14 9 9 9 11 11 12 11 11 15 15 14 16 11 6 8 13 15 16 18 12 9 7 13 13
7 2 5 4 4 4 2 3 3 8 4 15 11 12 15 22 22 20 19 9 10 12 13 14 15 13 7 11 14 16 15 14 12 7 7 8 13 14 16 15 12 12 11 14
2 4 6 5 10 14 15 13 14 14 10 16 17 26 21 22 25 20 11 11 11 12 15 17 14 11 10 12 13 15 13 10 13 16 12 6 7 9 14 18 13 15 12 15
3 6 9 11 14 16 18 19 18 17 18 18 24 25 24 18 19 15 14 13 14 18 21 18 12 15 15 14 10 12 14 13 13 16 13 8 6 7 13 14 17 16 14 12
2 4 9 12 16 16 18 18 19 19 20 21 20 22 18 14 16 16 13 14 15 18 16 19 18 19 18 16 12 13 16 14 15 16 16 13 7 6 7 11 15 14 18 11
5 3 5 4 7 17 14 4 6 13 16 13 16 18 15 14 15 17 17 18 18 14 20 16 18 18 16 17 16 16 17 17 13 16 17 17 10 7 6 7 9 12 19 10
7 6 3 7 12 4 4 14 14 17 18 16 18 16 12 13 15 17 19 16 16 15 16 18 16 16 18 18 15 16 16 15 12 15 17 19 7 8 11 8 8 10 14 15
11 6 4 3 5 17 19 5 14 18 16 11 9 11 17 19 16 18 16 13 17 20 18 16 16 19 19 19 16 15 18 14 13 17 18 11 12 15 13 12 9 8 11 17
8 10 7 5 5 6 3 18 11 7 15 6 16 21 20 18 14 15 20 20 20 20 17 15 18 18 18 18 15 17 15 15 15 18 11 13 14 16 17 14 10 9 11 14
4 5 10 10 10 10 10 7 13 8 13 21 22 16 17 15 11 19 20 22 20 19 18 19 19 17 19 16 15 15 17 15 12 16 13 13 14 18 19 16 11 9 10 10
3 3 3 5 8 12 2 17 13 18 19 20 14 13 16 19 20 20 19 19 20 21 23 24 19 18 20 16 14 16 16 16 16 14 14 14 16 16 15 16 9 9 8 10
4 7 3 5 6 13 18 18 17 18 12 13 17 19 18 20 21 20 20 22 22 23 22 21 19 18 22 15 13 14 17 16 17 13 15 14 17 17 18 16 9 8 10 10
7 5 7 10 7 12 17 21 15 15 14 17 18 19 19 22 23 26 23 23 22 22 21 20 19 20 20 15 15 12 16 16 17 17 15 15 15 18 17 12 8 10 10 11
9 10 9 13 17 19 13 13 13 17 17 19 19 20 23 25 26 25 23 23 22 22 20 19 19 17 21 17 16 14 15 16 18 16 14 13 12 13 10 6 6 9 9 8
9 10 7 10 11 9 13 13 15 17 18 21 24 23 21 21 24 25 22 20 22 22 21 19 20 21 18 19 16 17 17 18 15 15 10 9 10 9 7 7 1 8 13 14
Wind_Direction
136 299 267 8 14 336 311 293 290 294 301 305 320 309 301 296 287 283 312 42 57 52 38 32 28 18 18 20 13 12 6 325 187 193 186 170 181 188 185 191 200 190 184 190
247 236 56 346 315 298 290 285 286 286 340 343 305 293 286 279 43 74 65 55 41 34 30 25 22 20 16 14 10 2 0 356 350 288 197 200 176 181 179 184 201 195 188 189
290 311 67 335 316 300 297 297 314 319 323 292 301 271 82 62 79 72 62 58 47 33 23 20 20 18 9 12 8 356 348 346 346 343 303 189 181 160 156 191 209 204 188 188
275 84 356 315 306 322 312 355 336 313 315 295 6 289 300 112 88 77 77 66 54 35 24 20 14 7 360 353 3 353 338 336 338 337 341 307 216 209 199 194 202 196 191 187
280 344 5 309 320 344 279 330 297 279 270 285 262 244 277 132 103 88 58 49 39 39 31 16 5 358 350 349 353 346 329 325 326 328 327 320 298 238 211 195 186 196 202 193
258 271 279 2 316 268 294 297 297 272 248 257 292 195 298 94 91 65 40 29 25 31 36 21 358 347 344 328 331 335 314 327 315 306 311 316 304 276 230 211 199 193 196 205
309 43 90 27 332 317 356 340 305 304 150 220 45 353 110 98 75 42 23 19 14 3 20 12 359 349 346 343 331 325 331 323 316 306 303 303 306 289 251 226 207 182 198 203
338 217 166 67 41 323 297 262 287 301 324 321 331 233 131 104 51 42 25 6 358 359 15 8 2 351 340 334 333 326 325 318 324 318 302 307 306 296 273 237 225 201 197 203
341 268 358 10 32 344 9 347 346 295 276 270 227 242 134 49 29 21 359 355 353 350 4 357 346 340 326 331 322 316 321 331 327 323 323 325 320 310 292 255 231 217 199 199
40 296 295 121 313 252 228 72 11 304 279 273 290 315 273 5 2 352 346 341 342 350 357 354 349 337 342 324 321 318 321 319 320 317 322 330 318 307 300 290 235 224 220 198
335 234 295 333 276 351 322 301 291 260 243 267 320 255 49 2 354 339 331 337 329 346 342 338 324 329 332 318 309 339 329 311 309 310 323 325 322 315 304 292 260 223 221 206
45 314 289 273 312 27 320 295 277 225 280 329 273 273 311 336 333 316 308 316 330 339 342 330 322 316 314 318 341 325 323 311 302 298 324 318 315 313 311 297 292 271 220 220
10 261 304 148 118 182 37 14 297 248 260 261 264 267 327 313 308 303 304 323 341 347 338 323 307 314 315 335 333 318 312 308 321 298 292 291 305 314 315 310 298 278 255 226
177 261 253 267 293 306 298 300 293 287 280 287 267 288 299 300 294 295 332 334 343 341 331 319 312 311 334 327 316 310 313 320 308 313 294 275 303 314 314 310 307 299 275 229
233 269 276 284 300 302 293 289 282 274 276 271 288 279 283 293 316 320 320 342 342 334 318 313 326 318 321 315 314 318 313 309 309 305 300 288 284 312 310 308 310 306 278 270
212 275 311 289 280 276 289 286 284 276 274 273 288 294 305 310 307 315 342 334 327 316 328 323 327 321 319 314 317 314 305 306 305 301 303 294 264 271 306 301 309 307 293 268
287 280 321 261 319 311 287 282 343 312 303 313 311 313 322 339 349 335 330 324 313 326 307 315 318 310 312 314 315 308 306 298 292 299 301 301 289 273 285 275 296 304 296 260
253 278 287 289 308 253 248 325 329 324 316 311 307 323 348 324 314 313 310 304 304 313 316 315 307 310 309 306 307 307 299 304 297 301 301 292 307 312 308 279 261 286 287 275
216 241 280 273 281 284 276 278 334 308 307 308 310 321 314 311 315 302 305 313 315 311 309 301 312 307 305 304 306 313 301 296 309 296 292 311 315 307 302 284 235 246 270 282
209 207 224 266 281 271 279 324 327 338 296 341 331 317 316 322 306 299 311 305 301 297 293 309 303 302 301 302 303 298 306 304 293 300 314 307 310 311 300 284 267 222 248 265
226 236 236 249 255 263 271 6 337 304 296 317 308 302 312 301 290 300 301 299 294 289 309 306 303 298 299 303 301 304 298 298 306 298 304 303 303 301 292 285 257 214 228 251
222 246 240 254 262 268 13 328 320 300 308 304 325 324 307 298 296 297 298 298 303 304 305 300 296 298 298 297 296 294 300 303 301 295 300 295 296 297 288 281 240 211 202 236
246 214 214 220 242 290 309 300 304 301 319 326 318 312 302 300 299 302 301 297 294 292 294 294 287 298 294 294 289 298 298 303 294 301 301 294 295 299 292 288 232 211 197 212
274 283 275 300 257 289 299 293 298 317 318 321 312 302 310 304 302 298 297 299 293 293 291 289 300 296 293 298 303 294 304 304 307 300 302 293 298 296 294 283 206 189 192 203
262 295 260 266 281 283 288 313 344 332 321 310 305 304 302 301 301 302 303 305 304 303 301 302 298 298 294 303 301 310 309 314 299 299 298 289 292 293 306 287 169 182 186 212
242 246 246 272 304 310 321 333 331 314 315 311 308 312 314 310 308 309 304 304 302 298 298 297 296 290 291 294 295 307 302 295 295 301 286 283 290 291 296 303 137 127 159 234